Location: Ethel Rock
(53.4667°N, 4.5667°W)
Time: 05:11:51
(UTC+00:00)

Cosmos 1892 Rocket - Pass Details

Date: 24 October 2020
Orbit: 607 x 632 km, 82.5° (Epoch: 25 November)

Event Time Altitude Azimuth Distance (km) Brightness Sun altitude
Rises 06:01:50 0° 193° (SSW) 2,859 6.9 -9.6°
Reaches altitude 10° 06:04:02 10° 194° (SSW) 1,962 6.1 -9.3°
Maximum altitude 06:08:23 79° 282° (WNW) 631 3.5 -8.7°
Drops below altitude 10° 06:12:48 10° 9° (N) 1,990 6.2 -8.0°
Sets 06:15:03 0° 11° (N) 2,905 7.0 -7.7°
